Date String (YYYY-MM-DD hh:mm:ss) UTC,Instrument flags,Ambient pressure (hPa),Sample flow (lpm),Bypass flow (lpm),Sample temperature (°C),Ambient temperature (°C),ASC tube jacket temperature (°C),LED temperature (°C),Box temperature (°C),Sample RH (%),Span deviation,Mass concentration (μg/m³),Mass concentration (μg/m³),Mass concentration (μg/m³)
DateTimeUTC,F1_M11,P_M11,Q1_M11,Q2_M11,T1_M11,T2_M11,T3_M11,T4_M11,T5_M11,U1_M11,ZSPAN_M11,X0_M11,X2_M11,X1_M11
2021-09-09 18:00:00,,0830.5,5.01,0.00,29.2,26.8,00.0,38.2,30.7,16.1,0001.3,0036.71,0023.18,0021.44
2021-09-09 18:01:00,,0830.5,5.00,0.00,29.1,25.9,00.0,38.2,30.5,16.6,0001.2,0037.01,0023.23,0021.49
2021-09-09 18:02:00,,0830.5,5.00,0.00,29.1,26.4,00.0,38.2,30.6,16.3,0001.1,0038.55,0023.27,0021.50
2021-09-09 18:03:00,,0830.5,5.01,0.00,29.1,26.8,00.0,38.2,30.7,16.7,0001.0,0038.04,0023.31,0021.54
2021-09-09 18:04:00,,0830.5,5.00,0.00,29.1,27.2,00.0,38.2,30.8,16.2,0001.1,0038.70,0023.34,0021.59
2021-09-09 18:05:00,,0830.4,4.99,0.00,29.1,27.6,00.0,38.2,30.9,16.2,0000.5,0038.85,0023.39,0021.66
2021-09-09 18:06:00,,0830.5,5.01,0.00,29.2,27.9,00.0,38.2,31.0,17.2,0000.4,0038.58,0023.37,0021.70
2021-09-09 18:07:00,,0830.5,4.99,0.00,29.3,28.2,00.0,38.2,31.1,17.7,0000.4,0039.12,0023.48,0021.76
2021-09-09 18:08:00,,0830.5,4.99,0.00,29.3,28.2,00.0,38.2,31.2,17.4,0000.9,0040.77,0023.61,0021.84
2021-09-09 18:09:00,,0830.5,5.00,0.00,29.3,26.9,00.0,38.2,30.8,16.8,0001.2,0040.10,0023.62,0021.84
2021-09-09 18:10:00,,0830.5,4.99,0.00,29.1,26.0,00.0,38.2,30.5,17.0,0001.6,0039.61,0023.64,0021.85
2021-09-09 18:11:00,,0830.5,5.01,0.00,29.1,26.4,00.0,38.2,30.6,17.3,0001.5,0039.96,0023.65,0021.84
2021-09-09 18:12:00,,0830.5,5.01,0.00,29.1,26.8,00.0,38.2,30.8,17.7,0001.9,0040.56,0023.68,0021.82
2021-09-09 18:13:00,,0830.5,4.99,0.00,29.1,27.2,00.0,38.2,30.9,17.5,0002.1,0040.24,0023.69,0021.82
2021-09-09 18:14:00,,0830.5,5.01,0.00,29.1,27.5,00.0,38.2,31.0,17.1,0002.0,0040.96,0023.71,0021.79
2021-09-09 18:15:00,,0830.5,4.99,0.00,29.2,27.9,00.0,38.2,31.1,17.4,0001.5,0040.93,0023.78,0021.78
2021-09-09 18:16:00,,0830.5,5.00,0.00,29.3,28.1,00.0,38.2,31.1,17.5,0001.9,0041.26,0023.84,0021.77
2021-09-09 18:17:00,,0830.5,5.00,0.00,29.3,27.7,00.0,38.2,31.0,17.8,0001.9,0043.06,0023.95,0021.78
2021-09-09 18:18:00,,0830.5,5.01,0.00,29.2,26.1,00.0,38.2,30.5,18.1,0001.3,0043.51,0023.99,0021.82
2021-09-09 18:19:00,,0830.4,5.00,0.00,29.0,26.0,00.0,38.2,30.5,18.3,0001.2,0042.03,0023.99,0021.83
2021-09-09 18:20:00,,0830.4,5.00,0.00,29.0,26.5,00.0,38.2,30.7,18.4,0001.0,0042.07,0024.05,0021.85
2021-09-09 18:21:00,,0830.4,4.99,0.00,29.1,26.9,00.0,38.1,30.7,17.5,0001.2,0041.91,0024.06,0021.84
2021-09-09 18:22:00,,0830.4,5.01,0.00,29.1,27.3,00.0,38.1,30.9,17.5,0001.3,0042.10,0024.13,0021.86
2021-09-09 18:23:00,,0830.4,5.00,0.00,29.1,27.7,00.0,38.1,31.0,17.9,0001.3,0042.08,0024.20,0021.90
2021-09-09 18:24:00,,0830.3,5.00,0.00,29.2,28.0,00.0,38.1,31.1,17.9,0001.0,0043.15,0024.31,0021.95
2021-09-09 18:25:00,,0830.4,4.99,0.00,29.3,28.2,00.0,38.2,31.1,18.4,0001.6,0043.06,0024.42,0021.99
2021-09-09 18:26:00,,0830.4,5.01,0.00,29.3,27.8,00.0,38.2,31.0,19.2,0002.6,0044.15,0024.51,0022.02
2021-09-09 18:27:00,,0830.4,5.00,0.00,29.2,26.2,00.0,38.2,30.6,19.1,0002.9,0044.43,0024.52,0022.03
2021-09-09 18:28:00,,0830.4,5.00,0.00,29.1,26.0,00.0,38.2,30.5,18.5,0002.9,0043.39,0024.43,0022.03
2021-09-09 18:29:00,,0830.4,4.99,0.00,29.1,26.5,00.0,38.2,30.7,18.2,0003.2,0042.61,0024.44,0022.00
2021-09-09 18:30:00,,0830.5,5.01,0.00,29.1,26.9,00.0,38.1,30.8,18.5,0003.0,0042.92,0024.46,0021.96
2021-09-09 18:31:00,,0830.4,5.00,0.00,29.1,27.3,00.0,38.1,30.9,18.7,0003.0,0043.61,0024.42,0021.93
2021-09-09 18:32:00,,0830.5,5.00,0.00,29.1,27.7,00.0,38.1,31.0,19.1,0002.6,0045.77,0024.43,0021.94
2021-09-09 18:33:00,,0830.4,5.00,0.00,29.2,28.0,00.0,38.2,31.1,19.0,0002.4,0046.23,0024.41,0021.96
2021-09-09 18:34:00,,0830.4,5.01,0.00,29.3,28.2,00.0,38.2,31.2,19.2,0002.3,0045.29,0024.36,0021.94
2021-09-09 18:35:00,,0830.4,5.01,0.00,29.3,27.0,00.0,38.2,30.9,18.7,0002.5,0044.09,0024.24,0021.90
2021-09-09 18:36:00,,0830.3,5.00,0.00,29.1,25.9,00.0,38.2,30.5,18.7,0002.4,0043.58,0024.14,0021.89
2021-09-09 18:37:00,,0830.3,5.00,0.00,29.1,26.3,00.0,38.2,30.6,18.8,0002.1,0042.67,0024.07,0021.90
2021-09-09 18:38:00,,0830.3,4.99,0.00,29.1,26.7,00.0,38.1,30.7,18.8,0002.2,0042.00,0024.04,0021.91
2021-09-09 18:39:00,,0830.3,5.01,0.00,29.1,27.1,00.0,38.1,30.8,19.3,0002.5,0042.43,0024.04,0021.90
2021-09-09 18:40:00,,0830.2,4.99,0.00,29.1,27.5,00.0,38.1,30.9,19.7,0002.8,0042.85,0024.06,0021.90
2021-09-09 18:41:00,,0830.3,5.01,0.00,29.2,27.8,00.0,38.1,31.0,19.8,0002.9,0043.22,0024.01,0021.91
2021-09-09 18:42:00,,0830.3,5.00,0.00,29.2,28.0,00.0,38.2,31.1,20.0,0002.9,0041.47,0023.96,0021.89
2021-09-09 18:43:00,,0830.3,5.00,0.00,29.2,27.0,00.0,38.2,30.8,19.5,0002.6,0039.04,0023.96,0021.85
2021-09-09 18:44:00,,0830.3,5.00,0.00,29.1,25.9,00.0,38.1,30.5,19.2,0002.6,0038.29,0023.96,0021.85
2021-09-09 18:45:00,,0830.2,5.00,0.00,29.0,26.3,00.0,38.1,30.6,19.4,0002.3,0038.60,0023.97,0021.85
2021-09-09 18:46:00,,0830.3,5.01,0.00,29.0,26.7,00.0,38.1,30.7,19.7,0002.2,0038.38,0024.02,0021.86
2021-09-09 18:47:00,,0830.2,4.98,0.00,29.0,27.1,00.0,38.1,30.8,20.2,0002.2,0038.64,0024.03,0021.83
2021-09-09 18:48:00,,0830.2,5.00,0.00,29.1,27.5,00.0,38.1,30.9,19.3,0002.2,0038.27,0023.96,0021.79
2021-09-09 18:49:00,,0830.2,5.00,0.00,29.1,27.8,00.0,38.1,31.0,18.7,0001.9,0038.16,0023.97,0021.75
2021-09-09 18:50:00,,0830.2,4.99,0.00,29.2,28.1,00.0,38.1,31.1,18.9,0001.8,0038.51,0024.00,0021.74
2021-09-09 18:51:00,,0830.3,5.00,0.00,29.3,28.3,00.0,38.1,31.2,19.8,0001.6,0038.93,0023.84,0021.72
2021-09-09 18:52:00,,0830.2,5.01,0.00,29.3,27.2,00.0,38.2,30.9,19.6,0001.5,0040.85,0023.85,0021.75
2021-09-09 18:53:00,,0830.2,4.99,0.00,29.1,26.0,00.0,38.1,30.5,18.9,0001.6,0042.68,0023.87,0021.78
2021-09-09 18:54:00,,0830.2,5.00,0.00,29.1,26.3,00.0,38.1,30.6,17.2,0001.9,0043.40,0023.79,0021.76
2021-09-09 18:55:00,,0830.2,5.01,0.00,29.0,26.7,00.0,38.1,30.7,17.6,0002.1,0043.49,0023.69,0021.69
2021-09-09 18:56:00,,0830.1,5.01,0.00,29.1,27.1,00.0,38.1,30.8,18.1,0002.1,0043.58,0023.68,0021.66
2021-09-09 18:57:00,,0830.1,4.99,0.00,29.1,27.5,00.0,38.1,30.9,19.4,0001.9,0043.20,0023.59,0021.66
2021-09-09 18:58:00,,0830.2,4.99,0.00,29.2,27.8,00.0,38.1,31.0,19.2,0001.6,0043.62,0023.58,0021.70
2021-09-09 18:59:00,,0830.1,4.99,0.00,29.2,28.1,00.0,38.1,31.1,18.4,0001.6,0044.49,0023.65,0021.74
